Retour au catalogue

FENGYUN 1C DEB

ActifPO
NORAD 33655·DEBRIS·🇨🇳 China

Lancé May 10, 1999 depuis Taiyuan Satellite Launch Center

Loading…

Prochains Passages (prochaines 24 heures)

TLE

FraisSource: Space-Track

Époque: Sep 14, 2026, 13:23 UTC

1 33655U 99025DEQ 26257.55801634  .00030734  00000-0  17056-2 0  9999
2 33655  98.8014   6.4232 0033587 171.6514 188.5279 15.13210530  7011

Suivez FENGYUN 1C DEB en temps réel avec AllMySat

Download on the App Store